Location: ????
(32.1228°N, 34.8377°E)
Time: 03:37:45
(UTC+00:00)

Cosmos 1814 Rocket - Pass Details

Date: 21 September 2020
Orbit: 744 x 788 km, 74.1° (Epoch: 23 October)

Event Time Altitude Azimuth Distance (km) Brightness Sun altitude
Exits shadow 02:25:30 - 203° (SSW) 3,144 6.9 -14.1°
Reaches altitude 10° 02:27:45 10° 206° (SSW) 2,267 6.1 -13.6°
Maximum altitude 02:32:51 65° 288° (WNW) 834 4.0 -12.5°
Drops below altitude 10° 02:38:03 10° 10° (N) 2,308 6.7 -11.4°
Sets 02:40:28 0° 13° (NNE) 3,245 7.5 -10.9°
